CW0134 Oulu FI current weather conditions

sailwx.info

Wind from 063 at 0 knots gusting 7

Air temperature 16.7° C
Dewpoint 7.6° C

Last reported at 2020-Aug-10 15:00 UTC.
Time now 2020-Aug-10 16:14 UTC

Location: N 65°06' E 025°24'.
View on Google Maps.

See reports from other nearby stations

  
Tides and Currents Weather Stations Pressure Air Temp Water Temp Dewpoint Dewpoint Depression Visibility Wind Speed Wind Dir Waves Ship Positions
date/time (UTC)wind fromknots sea level pressurealtimeterstation pressurevisibilityair tempwater tempwave heightnotes
2020-Aug-10 15:00 063 0 gusting 7 16.7
2020-Aug-10 14:55 009 2 gusting 7 16.7
2020-Aug-10 14:50 328 1 gusting 8 16.7
2020-Aug-10 14:45 360 0 gusting 8 16.7
2020-Aug-10 14:40 313 16.7
2020-Aug-10 14:35 325 1 gusting 10 16.7
2020-Aug-10 14:30 018 2 gusting 10 16.7
2020-Aug-10 14:25 249 0 gusting 8 16.7
2020-Aug-10 14:20 355 1 gusting 10 17.2
2020-Aug-10 14:15 355 1 gusting 10 17.2
2020-Aug-10 14:10 327 0 gusting 6 17.2
2020-Aug-10 14:05 276 0 gusting 5 17.2
2020-Aug-10 14:00 017 17.2
2020-Aug-10 13:55 329 1 gusting 6 17.2
2020-Aug-10 13:45 329 17.2
2020-Aug-10 13:40 336 0 gusting 9 16.7
2020-Aug-10 13:35 355 16.7
2020-Aug-10 13:30 344 1 gusting 7 17.2
2020-Aug-10 13:25 005 0 gusting 6 16.7
2020-Aug-10 13:20 331 1 gusting 8 16.7
2020-Aug-10 13:15 327 1 gusting 7 16.7
2020-Aug-10 13:10 254 16.7
2020-Aug-10 13:05 015 16.1
2020-Aug-10 13:00 265 0 gusting 8 16.1
2020-Aug-10 12:55 331 1 gusting 8 16.1
2020-Aug-10 12:50 317 16.7
2020-Aug-10 12:45 355 16.7
2020-Aug-10 12:40 255 0 gusting 8 16.7
2020-Aug-10 12:35 283 16.7
2020-Aug-10 12:30 329 1 gusting 9 16.7
2020-Aug-10 12:25 005 1 gusting 9 17.2
2020-Aug-10 12:20 304 0 gusting 6 17.2
2020-Aug-10 12:15 335 0 gusting 6 17.2
2020-Aug-10 12:10 320 0 gusting 6 17.2
2020-Aug-10 12:05 355 17.2
2020-Aug-10 12:00 350 17.2
2020-Aug-10 11:55 344 1 gusting 5 16.7
2020-Aug-10 11:50 319 16.7
2020-Aug-10 11:45 264 0 gusting 6 16.7
2020-Aug-10 11:40 337 0 gusting 6 16.7
2020-Aug-10 11:35 005 0 gusting 8 16.7
2020-Aug-10 11:30 330 2 gusting 9 16.7
2020-Aug-10 11:25 245 16.7
2020-Aug-10 11:20 306 1 gusting 11 16.7
2020-Aug-10 11:15 203 1 gusting 11 16.7
2020-Aug-10 11:10 335 4 gusting 11 16.7
2020-Aug-10 11:05 013 3 gusting 12 16.7
2020-Aug-10 11:00 310 2 gusting 12 17.2
2020-Aug-10 10:55 038 0 gusting 6 17.2
2020-Aug-10 10:50 340 0 gusting 6 17.8
2020-Aug-10 10:45 350 17.8
2020-Aug-10 10:40 025 17.2
2020-Aug-10 10:35 026 0 gusting 4 17.2
2020-Aug-10 10:30 360 17.2
2020-Aug-10 10:25 288 17.2
2020-Aug-10 10:20 347 0 gusting 7 17.2
2020-Aug-10 10:15 298 2 gusting 9 17.2
2020-Aug-10 10:10 057 0 gusting 9 17.2
2020-Aug-10 10:05 157 0 gusting 8 17.2
2020-Aug-10 10:00 223 2 gusting 6 16.7
2020-Aug-10 09:55 360 1 gusting 10 17.2
2020-Aug-10 09:50 325 1 gusting 10 16.7
2020-Aug-10 09:45 308 0 gusting 6 16.1
2020-Aug-10 09:40 274 1 gusting 7 16.1
2020-Aug-10 09:35 279 2 gusting 9 16.1
2020-Aug-10 09:30 258 0 gusting 9 16.1
2020-Aug-10 09:25 039 1 gusting 6 16.7
2020-Aug-10 09:20 273 17.2
2020-Aug-10 09:15 300 2 gusting 9 17.2
2020-Aug-10 09:10 252 0 gusting 6 16.7
2020-Aug-10 09:05 348 0 gusting 6 16.1
2020-Aug-10 09:00 346 0 gusting 6 16.1
2020-Aug-10 08:55 290 0 gusting 6 16.7
2020-Aug-10 08:50 304 17.2
2020-Aug-10 08:45 252 0 gusting 6 17.2
2020-Aug-10 08:40 348 0 gusting 6 17.2
2020-Aug-10 08:35 158 0 gusting 11 16.7
2020-Aug-10 08:30 355 2 gusting 11 16.7
2020-Aug-10 08:25 331 2 gusting 11 16.7
2020-Aug-10 08:20 360 4 gusting 11 16.1
2020-Aug-10 08:15 267 2 gusting 9 16.7
2020-Aug-10 08:10 191 0 gusting 9 16.7
2020-Aug-10 08:05 275 0 gusting 7 16.7
2020-Aug-10 08:00 023 16.7
2020-Aug-10 07:55 067 1 gusting 13 16.7
2020-Aug-10 07:50 018 2 gusting 13 16.7
2020-Aug-10 07:45 344 16.7
2020-Aug-10 07:40 024 0 gusting 8 16.7
2020-Aug-10 07:35 355 3 gusting 7 16.7
2020-Aug-10 07:30 331 0 gusting 6 16.7
2020-Aug-10 07:25 268 0 gusting 11 16.7
2020-Aug-10 07:20 259 2 gusting 11 16.7
2020-Aug-10 07:15 032 1 gusting 7 16.7
2020-Aug-10 07:10 092 1 gusting 9 16.7
2020-Aug-10 07:05 296 2 gusting 9 16.7
2020-Aug-10 07:00 005 0 gusting 5 16.7
2020-Aug-10 06:55 360 0 gusting 6 16.1
2020-Aug-10 06:50 055 0 gusting 6 16.1
2020-Aug-10 06:45 316 0 gusting 3 15.6
2020-Aug-10 06:40 336 0 gusting 6 15.0
2020-Aug-10 06:35 280 0 gusting 6 15.0
2020-Aug-10 06:30 261 15.0
2020-Aug-10 06:25 284 0 gusting 6 15.0
2020-Aug-10 06:20 015 0 gusting 6 15.0
2020-Aug-10 06:15 360 0 gusting 9 14.4
2020-Aug-10 06:10 340 0 gusting 6 14.4
2020-Aug-10 06:05 355 14.4
2020-Aug-10 06:00 346 14.4
2020-Aug-10 05:55 312 0 gusting 7 13.9
2020-Aug-10 05:50 157 13.9
2020-Aug-10 05:45 338 13.9
2020-Aug-10 05:40 360 0 gusting 7 13.9
2020-Aug-10 05:35 333 0 gusting 7 13.9
2020-Aug-10 05:30 317 13.3
2020-Aug-10 05:25 029 13.9
2020-Aug-10 05:20 326 1 gusting 6 13.9
2020-Aug-10 05:15 278 0 gusting 6 13.9
2020-Aug-10 05:10 005 14.4
2020-Aug-10 05:05 333 14.4
2020-Aug-10 05:00 303 0 gusting 8 15.0
2020-Aug-10 04:55 018 0 gusting 4 15.0
2020-Aug-10 04:50 306 1 gusting 4 15.0
2020-Aug-10 04:45 331 14.4
2020-Aug-10 04:40 005 14.4
2020-Aug-10 04:35 340 14.4
2020-Aug-10 04:30 301 0 gusting 5 13.9
2020-Aug-10 04:25 336 0 gusting 9 13.9
2020-Aug-10 04:20 335 0 gusting 6 13.9
2020-Aug-10 04:15 331 0 gusting 6 13.9
2020-Aug-10 04:10 317 0 gusting 4 13.9
2020-Aug-10 04:05 015 13.9
2020-Aug-10 04:00 342 13.3
2020-Aug-10 03:55 344 13.3
2020-Aug-10 03:50 346 13.3
2020-Aug-10 03:45 346 12.8
2020-Aug-10 03:40 344 12.8
2020-Aug-10 03:35 360 12.2
2020-Aug-10 03:30 360 12.2
2020-Aug-10 03:25 360 0 gusting 4 12.2
2020-Aug-10 03:20 330 11.7
2020-Aug-10 03:15 350 11.7
2020-Aug-10 03:10 308 11.1
2020-Aug-10 03:05 308 11.1
2020-Aug-10 03:00 308 11.1
2020-Aug-10 02:55 319 10.6
2020-Aug-10 02:50 338 10.6
2020-Aug-10 02:45 322 10.6
2020-Aug-10 02:40 321 10.0
2020-Aug-10 02:35 319 10.0
2020-Aug-10 02:30 319 10.0
2020-Aug-10 02:25 319 10.0
2020-Aug-10 02:20 319 10.0
2020-Aug-10 02:15 319 10.0
2020-Aug-10 02:10 319 10.0
2020-Aug-10 02:05 319 10.6
2020-Aug-10 02:00 319 10.6
2020-Aug-10 01:55 319 10.6
2020-Aug-10 01:50 319 10.6
2020-Aug-10 01:45 319 10.6
2020-Aug-10 01:40 319 10.6
2020-Aug-10 01:35 319 10.6
2020-Aug-10 01:30 319 10.6
2020-Aug-10 01:25 319 11.1
2020-Aug-10 01:20 319 11.1
2020-Aug-10 01:15 319 11.1
2020-Aug-10 01:10 319 11.1
2020-Aug-10 01:05 319 11.1
2020-Aug-10 01:00 011 11.1
2020-Aug-10 00:55 011 11.1
2020-Aug-10 00:50 011 11.1
2020-Aug-10 00:45 011 11.1
2020-Aug-10 00:40 011 11.1
2020-Aug-10 00:35 011 11.7
2020-Aug-10 00:30 011 11.7
2020-Aug-10 00:25 011 11.7
2020-Aug-10 00:20 011 11.7
2020-Aug-10 00:15 011 11.7
2020-Aug-10 00:10 312 11.7
2020-Aug-10 00:05 013 12.2
2020-Aug-10 00:00 013 12.2
2020-Aug-09 23:55 023 12.2
2020-Aug-09 23:50 023 12.2
2020-Aug-09 23:45 324 12.2
2020-Aug-09 23:40 323 12.2
2020-Aug-09 23:35 351 12.2
2020-Aug-09 23:30 032 0 gusting 3 11.7
2020-Aug-09 23:25 335 11.7
2020-Aug-09 23:20 348 11.7
2020-Aug-09 23:15 348 11.7
2020-Aug-09 23:10 009 11.7
2020-Aug-09 23:05 009 11.7
2020-Aug-09 23:00 009 11.7
2020-Aug-09 22:55 009 11.7
2020-Aug-09 22:50 338 11.7
2020-Aug-09 22:45 338 11.7
2020-Aug-09 22:40 338 12.2
2020-Aug-09 22:35 338 12.2
2020-Aug-09 22:30 338 12.2
2020-Aug-09 22:25 338 12.2
2020-Aug-09 22:20 338 12.2
2020-Aug-09 22:15 338 12.2
2020-Aug-09 22:10 338 12.2
2020-Aug-09 22:05 338 12.2
2020-Aug-09 22:00 329 11.7
2020-Aug-09 21:55 328 11.7
2020-Aug-09 21:50 328 11.7
2020-Aug-09 21:45 328 11.7
2020-Aug-09 21:40 328 11.7
2020-Aug-09 21:35 328 11.7
2020-Aug-09 21:30 328 11.7
2020-Aug-09 21:25 328 11.7
2020-Aug-09 21:20 328 11.7
2020-Aug-09 21:15 328 11.7
2020-Aug-09 21:10 328 11.7
2020-Aug-09 21:05 328 12.2
2020-Aug-09 21:00 328 12.2
2020-Aug-09 20:55 328 12.2
2020-Aug-09 20:50 328 12.2
2020-Aug-09 20:45 328 12.2
2020-Aug-09 20:40 328 12.2
2020-Aug-09 20:35 328 12.2
2020-Aug-09 20:30 328 12.2
2020-Aug-09 20:25 328 12.8
2020-Aug-09 20:20 328 12.8
2020-Aug-09 20:15 328 12.8
2020-Aug-09 20:10 328 12.8
2020-Aug-09 20:05 328 13.3
2020-Aug-09 20:00 328 13.3
2020-Aug-09 19:55 328 13.3
2020-Aug-09 19:50 328 13.9
2020-Aug-09 19:45 328 13.9
2020-Aug-09 19:40 328 13.9
2020-Aug-09 19:35 328 14.4
2020-Aug-09 19:30 328 14.4
2020-Aug-09 19:25 328 14.4
2020-Aug-09 19:20 328 14.4
2020-Aug-09 19:15 328 15.0
2020-Aug-09 19:10 328 15.0
2020-Aug-09 19:05 328 15.6
2020-Aug-09 19:00 328 15.6
2020-Aug-09 18:55 328 16.1
2020-Aug-09 18:50 328 16.1
2020-Aug-09 18:45 328 16.1
2020-Aug-09 18:40 328 16.7
2020-Aug-09 18:35 328 16.7
2020-Aug-09 18:30 338 17.2
2020-Aug-09 18:25 338 17.2
2020-Aug-09 18:20 338 17.2
2020-Aug-09 18:15 345 0 gusting 4 17.2
2020-Aug-09 18:10 302 17.2
2020-Aug-09 18:05 355 0 gusting 4 17.8
2020-Aug-09 18:00 300 17.8
2020-Aug-09 17:55 360 17.8
2020-Aug-09 17:50 321 17.8
2020-Aug-09 17:45 332 17.8
2020-Aug-09 17:40 355 0 gusting 6 17.8
2020-Aug-09 17:35 256 0 gusting 4 18.3
2020-Aug-09 17:30 341 18.3
2020-Aug-09 17:25 238 0 gusting 4 18.3
2020-Aug-09 17:20 289 0 gusting 4 18.3
2020-Aug-09 17:15 310 0 gusting 6 18.9
2020-Aug-09 17:10 336 18.9
2020-Aug-09 17:05 288 18.9
2020-Aug-09 17:00 189 18.9
2020-Aug-09 16:55 275 0 gusting 7 18.9
2020-Aug-09 16:50 275 0 gusting 8 18.9
2020-Aug-09 16:45 281 1 gusting 8 18.9
2020-Aug-09 16:40 012 0 gusting 4 18.9
2020-Aug-09 16:35 005 18.9
2020-Aug-09 16:30 280 19.4
2020-Aug-09 16:25 265 19.4
2020-Aug-09 16:20 313 19.4
2020-Aug-09 16:15 278 0 gusting 6 19.4
2020-Aug-09 16:10 355 0 gusting 5 19.4
2020-Aug-09 16:05 301 0 gusting 4 19.4
2020-Aug-09 16:00 355 19.4
2020-Aug-09 15:55 198 19.4
2020-Aug-09 15:50 281 19.4
2020-Aug-09 15:45 262 19.4
2020-Aug-09 15:40 326 20.0
2020-Aug-09 15:35 327 2 gusting 6 20.0
2020-Aug-09 15:30 269 0 gusting 6 20.0
2020-Aug-09 15:25 250 0 gusting 4 20.0
2020-Aug-09 15:20 320 20.0
2020-Aug-09 15:15 355 0 gusting 4 20.0
2020-Aug-09 15:10 013 0 gusting 6 20.0
2020-Aug-09 15:05 282 0 gusting 6 20.6
2020-Aug-09 15:00 327 0 gusting 6 20.6
2020-Aug-09 14:55 323 0 gusting 6 20.6
2020-Aug-09 14:50 042 0 gusting 5 20.6
2020-Aug-09 14:45 258 20.6
2020-Aug-09 14:40 187 20.6
2020-Aug-09 14:35 292 0 gusting 6 20.0
2020-Aug-09 14:30 322 0 gusting 6 20.0
2020-Aug-09 14:25 277 0 gusting 5 20.0
2020-Aug-09 14:20 257 0 gusting 5 20.0
2020-Aug-09 14:15 263 20.0
2020-Aug-09 14:10 335 0 gusting 5 20.6
2020-Aug-09 14:05 235 20.6
2020-Aug-09 14:00 219 0 gusting 7 20.6
2020-Aug-09 13:55 340 21.1
2020-Aug-09 13:50 257 21.1
2020-Aug-09 13:45 300 21.1
2020-Aug-09 13:40 277 0 gusting 10 21.1
2020-Aug-09 13:35 355 21.1
2020-Aug-09 13:30 258 21.1
2020-Aug-09 13:25 247 21.1
2020-Aug-09 13:20 254 0 gusting 6 21.1
2020-Aug-09 13:15 277 21.1
2020-Aug-09 13:10 212 0 gusting 6 21.1
2020-Aug-09 13:05 194 21.1
2020-Aug-09 13:00 326 0 gusting 6 21.1
2020-Aug-09 12:55 239 0 gusting 5 20.6
2020-Aug-09 12:50 038 20.6
2020-Aug-09 12:45 292 0 gusting 6 20.6
2020-Aug-09 12:40 277 20.6
2020-Aug-09 12:35 327 0 gusting 5 20.0
2020-Aug-09 12:30 248 0 gusting 5 20.6
2020-Aug-09 12:25 360 0 gusting 5 20.6
2020-Aug-09 12:20 294 20.6
2020-Aug-09 12:15 259 0 gusting 6 20.6
2020-Aug-09 12:10 251 20.6
2020-Aug-09 12:05 279 20.6
2020-Aug-09 12:00 203 20.6
2020-Aug-09 11:55 302 20.6
2020-Aug-09 11:50 286 0 gusting 5 20.6
2020-Aug-09 11:45 237 0 gusting 4 20.0
2020-Aug-09 11:40 307 20.0
2020-Aug-09 11:35 180 20.0
2020-Aug-09 11:30 232 0 gusting 3 20.0
2020-Aug-09 11:25 208 20.0
2020-Aug-09 11:20 244 19.4
2020-Aug-09 11:15 267 19.4
2020-Aug-09 11:10 258 19.4
2020-Aug-09 11:05 259 19.4
2020-Aug-09 11:00 250 19.4
2020-Aug-09 10:55 303 19.4
2020-Aug-09 10:50 319 19.4
2020-Aug-09 10:45 327 0 gusting 6 19.4
2020-Aug-09 10:40 248 1 gusting 6 19.4
2020-Aug-09 10:35 263 0 gusting 5 19.4
2020-Aug-09 10:30 240 0 gusting 4 19.4
2020-Aug-09 10:25 284 0 gusting 6 19.4
2020-Aug-09 10:20 246 19.4
2020-Aug-09 10:15 169 19.4
2020-Aug-09 10:10 218 19.4
2020-Aug-09 10:05 216 19.4
2020-Aug-09 10:00 263 19.4
2020-Aug-09 09:55 281 19.4
2020-Aug-09 09:50 180 0 gusting 6 19.4
2020-Aug-09 09:45 262 19.4
2020-Aug-09 09:40 267 20.0
2020-Aug-09 09:35 259 0 gusting 6 20.0
2020-Aug-09 09:30 282 20.0
2020-Aug-09 09:25 311 0 gusting 6 20.6
2020-Aug-09 09:20 233 20.6
2020-Aug-09 09:15 310 0 gusting 6 20.6
2020-Aug-09 09:10 202 20.0
2020-Aug-09 09:05 215 19.4
2020-Aug-09 09:00 284 18.9
2020-Aug-09 08:55 249 18.9
2020-Aug-09 08:50 288 0 gusting 4 19.4
2020-Aug-09 08:45 186 19.4
2020-Aug-09 08:40 302 19.4
2020-Aug-09 08:35 228 1 gusting 6 20.0
2020-Aug-09 08:30 183 20.0
2020-Aug-09 08:25 313 0 gusting 6 20.0
2020-Aug-09 08:20 275 20.0
2020-Aug-09 08:15 274 19.4
2020-Aug-09 08:10 275 19.4
2020-Aug-09 08:05 275 19.4
2020-Aug-09 08:00 238 20.0
2020-Aug-09 07:55 305 20.0
2020-Aug-09 07:50 005 0 gusting 9 20.0
2020-Aug-09 07:45 290 1 gusting 9 20.6
2020-Aug-09 07:40 203 0 gusting 4 20.6
2020-Aug-09 07:35 190 20.6
2020-Aug-09 07:30 205 20.6
2020-Aug-09 07:25 242 20.6
2020-Aug-09 07:20 345 0 gusting 5 20.6
2020-Aug-09 07:15 290 20.0
2020-Aug-09 07:10 246 1 gusting 6 20.0
2020-Aug-09 07:05 168 20.0
2020-Aug-09 07:00 289 0 gusting 4 20.0
2020-Aug-09 06:55 288 20.0
2020-Aug-09 06:50 205 20.0
2020-Aug-09 06:45 249 20.0
2020-Aug-09 06:40 280 0 gusting 5 20.0
2020-Aug-09 06:35 304 0 gusting 4 20.0
2020-Aug-09 06:30 196 0 gusting 4 20.0
2020-Aug-09 06:25 209 0 gusting 3 20.0
2020-Aug-09 06:20 236 20.0
2020-Aug-09 06:15 158 20.0
2020-Aug-09 06:10 179 0 gusting 4 20.0
2020-Aug-09 06:05 263 20.0
2020-Aug-09 06:00 290 20.6
2020-Aug-09 05:55 173 20.6
2020-Aug-09 05:50 171 20.6
2020-Aug-09 05:45 217 20.6
2020-Aug-09 05:40 284 0 gusting 4 20.6
2020-Aug-09 05:35 221 20.6
2020-Aug-09 05:30 221 20.6
2020-Aug-09 05:25 187 20.6
2020-Aug-09 05:20 194 20.0
2020-Aug-09 05:15 194 20.0
2020-Aug-09 05:10 194 19.4
2020-Aug-09 05:05 194 19.4
2020-Aug-09 05:00 181 19.4
2020-Aug-09 04:55 180 19.4
2020-Aug-09 04:50 173 20.0
2020-Aug-09 04:46 227 20.0
2020-Aug-09 04:40 232 20.0
2020-Aug-09 04:35 298 19.4
2020-Aug-09 04:30 240 19.4
2020-Aug-09 04:25 240 0 gusting 4 19.4
2020-Aug-09 04:20 209 18.9
2020-Aug-09 04:15 291 18.9
2020-Aug-09 04:10 209 18.9
2020-Aug-09 04:05 251 18.9
2020-Aug-09 04:00 296 18.9
2020-Aug-09 03:55 233 18.9
2020-Aug-09 03:50 203 18.9
2020-Aug-09 03:45 138 18.9
2020-Aug-09 03:40 217 18.9
2020-Aug-09 03:35 254 0 gusting 3 18.3
2020-Aug-09 03:30 226 0 gusting 3 18.3
2020-Aug-09 03:25 305 17.8
2020-Aug-09 03:20 200 17.2
2020-Aug-09 03:15 197 17.2
2020-Aug-09 03:10 197 17.2
2020-Aug-09 03:05 197 17.2
2020-Aug-09 03:00 197 17.2
2020-Aug-09 02:55 197 17.2
2020-Aug-09 02:50 165 17.2
2020-Aug-09 02:45 165 17.2
2020-Aug-09 02:40 165 17.2
2020-Aug-09 02:35 140 17.2
2020-Aug-09 02:30 140 17.2
2020-Aug-09 02:25 140 17.2
2020-Aug-09 02:20 116 17.2
2020-Aug-09 02:15 116 17.2
2020-Aug-09 02:10 116 17.2
2020-Aug-09 02:05 115 17.2
2020-Aug-09 02:00 115 17.2
2020-Aug-09 01:55 157 17.2
2020-Aug-09 01:50 331 17.2
2020-Aug-09 01:45 137 17.2
2020-Aug-09 01:40 137 17.2
2020-Aug-09 01:35 138 0 gusting 1 17.2
2020-Aug-09 01:30 129 17.2
2020-Aug-09 01:25 130 17.2
2020-Aug-09 01:20 132 17.2
2020-Aug-09 01:15 132 17.2
2020-Aug-09 01:10 132 17.2
2020-Aug-09 01:05 132 17.2
2020-Aug-09 01:00 132 17.8
2020-Aug-09 00:55 132 17.8
2020-Aug-09 00:50 132 17.8
2020-Aug-09 00:45 132 17.8
2020-Aug-09 00:40 132 17.8
2020-Aug-09 00:35 132 17.8
2020-Aug-09 00:30 132 17.8
2020-Aug-09 00:25 132 17.8
2020-Aug-09 00:20 132 17.8
2020-Aug-09 00:15 132 17.8
2020-Aug-09 00:10 132 17.8
2020-Aug-09 00:05 128 17.8
2020-Aug-09 00:00 128 17.8
2020-Aug-08 23:55 128 17.8
2020-Aug-08 23:50 128 17.8
2020-Aug-08 23:45 128 17.8
2020-Aug-08 23:40 128 18.3
2020-Aug-08 23:35 128 18.3
2020-Aug-08 23:30 128 18.3
2020-Aug-08 23:25 120 18.3
2020-Aug-08 23:20 120 18.3
2020-Aug-08 23:15 120 18.3
2020-Aug-08 23:10 120 18.3
2020-Aug-08 23:05 113 18.3
2020-Aug-08 23:00 130 18.3
2020-Aug-08 22:55 113 18.3
2020-Aug-08 22:50 094 18.3
2020-Aug-08 22:45 094 0 gusting 3 18.3
2020-Aug-08 22:40 077 0 gusting 3 18.3
2020-Aug-08 22:35 113 18.3
2020-Aug-08 22:30 155 18.3
2020-Aug-08 22:25 155 18.3
2020-Aug-08 22:20 155 0 gusting 2 18.9
2020-Aug-08 22:15 155 18.9
2020-Aug-08 22:10 155 18.9
2020-Aug-08 22:05 155 18.9
2020-Aug-08 22:00 155 18.9
2020-Aug-08 21:55 159 18.9
2020-Aug-08 21:50 159 19.4
2020-Aug-08 21:45 159 19.4
2020-Aug-08 21:40 159 19.4
2020-Aug-08 21:35 159 19.4
2020-Aug-08 21:30 165 18.9
2020-Aug-08 21:25 259 18.9
2020-Aug-08 21:20 259 18.9
2020-Aug-08 21:15 259 18.9
2020-Aug-08 21:10 259 18.9
2020-Aug-08 21:05 259 18.9
2020-Aug-08 21:00 259 18.9
2020-Aug-08 20:55 259 18.9
2020-Aug-08 20:50 263 18.9
2020-Aug-08 20:45 263 18.9
2020-Aug-08 20:40 263 18.9
2020-Aug-08 20:35 263 18.3
2020-Aug-08 20:30 263 18.3
2020-Aug-08 20:25 263 18.3
2020-Aug-08 20:20 263 18.3
2020-Aug-08 20:15 265 17.8
2020-Aug-08 20:10 265 17.8
2020-Aug-08 20:05 265 17.8
2020-Aug-08 20:00 265 18.3
2020-Aug-08 19:55 265 18.3
2020-Aug-08 19:50 265 18.3
2020-Aug-08 19:45 265 18.3
2020-Aug-08 19:40 265 18.3
2020-Aug-08 19:35 265 18.3
2020-Aug-08 19:30 265 18.9
2020-Aug-08 19:25 265 18.9
2020-Aug-08 19:20 265 18.9
2020-Aug-08 19:15 265 18.9
2020-Aug-08 19:10 265 19.4
2020-Aug-08 19:05 265 19.4
2020-Aug-08 19:00 265 19.4
2020-Aug-08 18:55 265 19.4
2020-Aug-08 18:50 265 20.0
2020-Aug-08 18:45 265 20.0
2020-Aug-08 18:40 265 20.0
2020-Aug-08 18:35 265 20.0
2020-Aug-08 18:30 265 20.6
2020-Aug-08 18:25 265 20.6
2020-Aug-08 18:20 265 20.6
2020-Aug-08 18:15 265 21.1
2020-Aug-08 18:10 265 21.1
2020-Aug-08 18:05 265 21.1
2020-Aug-08 18:00 265 21.1
2020-Aug-08 17:55 265 21.7
2020-Aug-08 17:50 265 21.7
2020-Aug-08 17:45 265 21.7
2020-Aug-08 17:40 265 21.7
2020-Aug-08 17:35 265 21.7
2020-Aug-08 17:30 265 21.7
2020-Aug-08 17:25 265 21.7
2020-Aug-08 17:20 265 21.7
2020-Aug-08 17:15 265 22.2
2020-Aug-08 17:10 265 22.2
2020-Aug-08 17:05 265 22.2
2020-Aug-08 17:00 265 22.2
2020-Aug-08 16:55 265 21.7
2020-Aug-08 16:50 265 21.7
2020-Aug-08 16:45 265 21.7
2020-Aug-08 16:40 265 21.7
2020-Aug-08 16:35 265 21.7
2020-Aug-08 16:30 265 21.7
2020-Aug-08 16:25 265 21.7
2020-Aug-08 16:20 265 21.7
2020-Aug-08 16:15 265 21.7
2020-Aug-08 16:10 265 21.7
2020-Aug-08 16:05 265 22.2
2020-Aug-08 16:00 265 22.2